Skip Page Navigation
NASA JPL Caltech
NASA Logo - Jet Propulsion Laboratory + View the NASA Portal
+ Center for Near-Earth Object Studies
JPL Home Earth Solar System Stars & Galaxies Technology
JPL Solar System Dynamics
BODIES ORBITS EPHEMERIDES TOOLS PHYSICAL DATA DISCOVERY FAQ SITE MAP
IMPORTANT: The SSD Announcement email list is now available. Major changes are coming in the near future, including possible hostname and/or URL changes. To be notified of such changes, subscribe to this email list.

Please visit this page for more details.


JPL Small-Body Database Browser
Search: [ help ]  
392852 (2012 UT60)
Classification: Main-belt Asteroid          SPK-ID: 2392852
Ephemeris | Orbit Diagram | Orbital Elements | Mission Design | Physical Parameters | Discovery Circumstances ]

[ show orbit diagram ]
Orbital Elements at Epoch 2458600.5 (2019-Apr-27.0) TDB
Reference: JPL 17 (heliocentric ecliptic J2000)
 Element Value Uncertainty (1-sigma)   Units 
e .06412202339546523 5.5553e-08  
a 2.232825783628707 2.0811e-08 au
q 2.089652476492869 1.2775e-07 au
i 8.207293096947746 5.0235e-06 deg
node 58.52310822646147 4.5703e-05 deg
peri 158.9332700111343 6.6431e-05 deg
M 174.4786160224506 4.8713e-05 deg
tp 2458009.863350721975
(2017-Sep-13.36335072)
0.0001629 TDB
period 1218.654747426066
3.34
1.7038e-05
4.665e-08
d
yr
n .2954077032566935 4.1301e-09 deg/d
Q 2.375999090764545 2.2146e-08 au
  Orbit Determination Parameters
   # obs. used (total)      205  
   data-arc span      5229 days (14.32 yr)  
   first obs. used      2004-04-13  
   last obs. used      2018-08-07  
   planetary ephem.      DE431  
   SB-pert. ephem.      SB431-N16  
   condition code      0  
   norm. resid. RMS      .56875  
   source      ORB  
   producer      Otto Matic  
   solution date      2019-Jul-14 15:04:34  

Additional Information
 Earth MOID = 1.08288 au 
 Jupiter MOID = 2.59559 au 
 T_jup = 3.624 
[ show covariance matrix ]

Ephemeris | Orbit Diagram | Orbital Elements | Mission Design | Physical Parameters | Discovery Circumstances ]

Physical Parameter Table
Parameter Symbol Value Units Sigma Reference Notes
absolute magnitude H 17.2   n/a MPO455787  

392852 (2012 UT60)          Discovered 2004-Apr-13 by Spacewatch at Kitt Peak
Reference: Last Updated: 2014-04-17

Alternate Designations
 2012 UT60 = 2004 GP24 
Ephemeris | Orbit Diagram | Orbital Elements | Mission Design | Physical Parameters | Discovery Circumstances ]
ABOUT SSD CREDITS/AWARDS PRIVACY/COPYRIGHT GLOSSARY LINKS
FirstGov
(server date/time)  
NASA Home Page
Site Manager:   Ryan S. Park
Webmaster  Alan B. Chamberlin